Tracking 28790 objects as of 19-Apr-2024
HD Live streaming from Space Station
objects crossing your sky now

COSMOS 886 DEB

Track COSMOS 886 DEB now!
10-day predictions


NORAD ID: 9721
Int'l Code: 1976-126S
Perigee: 536.3 km
Apogee: 2,190.8 km
Inclination: 65.8 °
Period: 112.8 minutes
Semi major axis: 7734 km
RCS: 0.1096 m2 (medium)
Launch date: December 27, 1976
Source: Commonwealth of Independent States (former USSR) (CIS)
Launch site: TYURATAM MISSILE AND SPACE COMPLEX (TTMTR)

Note: This is SATELLITE DEBRIS
Your satellite tracking list
Your tracking list is empty




NASA's NSSDC Master Catalog

Two Line Element Set (TLE):
1  9721U 76126S   24109.97209530  .00000743  00000-0  29710-3 0  9998
2  9721  65.8440 322.5663 1069549 346.4664  10.9605 12.76296078195220
Source of the keplerian elements: AFSPC